N104VA KHEF-KCRW

Flight info

Callsign N104VA
Flight time 0h 44m
Altitude 36000
Route HIICH2 OTTTO Q68 HVQ
Aircraft E190/M-SDE1E2E3FGHIJ3J4J7P2RWXY/LB1D1G1

Departure

Time 2026-05-04 09:15
Airport Manassas Regional Airport/Harry P. Davis Field (KHEF)

Arrival

Time 2026-05-04 10:00
Airport Yeager Airport (KCRW)
Time Latitude Longitude Altitude Speed Heading
2026-05-04 09:01 38.72519 -77.51216 183 ft 0 kts 329°
2026-05-04 09:10 38.72525 -77.51220 183 ft 1 kts 329°
2026-05-04 09:11 38.72538 -77.51238 183 ft 3 kts 301°
2026-05-04 09:11 38.72543 -77.51251 183 ft 4 kts 294°
2026-05-04 09:11 38.72560 -77.51292 183 ft 6 kts 313°
2026-05-04 09:11 38.72601 -77.51328 183 ft 7 kts 329°
2026-05-04 09:12 38.72637 -77.51354 183 ft 9 kts 330°
2026-05-04 09:12 38.72677 -77.51411 183 ft 9 kts 265°
2026-05-04 09:14 38.72787 -77.51823 183 ft 8 kts 242°
2026-05-04 09:14 38.72750 -77.51859 183 ft 6 kts 169°
2026-05-04 09:14 38.72724 -77.51845 183 ft 3 kts 149°
2026-05-04 09:14 38.72630 -77.51776 183 ft 48 kts 151°
2026-05-04 09:15 38.72093 -77.51390 183 ft 126 kts 150°
2026-05-04 09:15 38.71191 -77.50743 509 ft 156 kts 150°
2026-05-04 09:15 38.70237 -77.50091 1316 ft 159 kts 165°
2026-05-04 09:15 38.69197 -77.50118 1975 ft 158 kts 205°
2026-05-04 09:17 38.62520 -77.63069 9485 ft 257 kts 271°
2026-05-04 09:18 38.63026 -77.65181 10572 ft 261 kts 303°
2026-05-04 09:18 38.64416 -77.66724 11528 ft 273 kts 321°
2026-05-04 09:18 38.66029 -77.68118 12338 ft 286 kts 322°
2026-05-04 09:18 38.67704 -77.69561 13174 ft 296 kts 321°
2026-05-04 09:19 38.69411 -77.71031 14111 ft 301 kts 322°
2026-05-04 09:19 38.71037 -77.72676 15082 ft 299 kts 306°
2026-05-04 09:19 38.72065 -77.74960 16062 ft 300 kts 294°
2026-05-04 09:19 38.72977 -77.77344 16997 ft 304 kts 294°
2026-05-04 09:20 38.73909 -77.79795 17916 ft 308 kts 294°
2026-05-04 09:20 38.74844 -77.82257 18782 ft 313 kts 294°
2026-05-04 09:20 38.75791 -77.84756 19685 ft 317 kts 294°
2026-05-04 09:20 38.76760 -77.87312 20626 ft 319 kts 294°
2026-05-04 09:21 38.77719 -77.89847 21499 ft 322 kts 294°
2026-05-04 09:21 38.78543 -77.92519 22334 ft 324 kts 287°
2026-05-04 09:21 38.79219 -77.95256 23146 ft 327 kts 287°
2026-05-04 09:21 38.79905 -77.98029 23931 ft 330 kts 287°
2026-05-04 09:22 38.80601 -78.00848 24713 ft 334 kts 287°
2026-05-04 09:22 38.81298 -78.03677 25512 ft 337 kts 287°
2026-05-04 09:22 38.82001 -78.06533 26326 ft 339 kts 286°
2026-05-04 09:22 38.82716 -78.09438 27082 ft 343 kts 287°
2026-05-04 09:23 38.83429 -78.12341 27825 ft 346 kts 286°
2026-05-04 09:23 38.84161 -78.15323 28561 ft 349 kts 286°
2026-05-04 09:23 38.84884 -78.18272 29280 ft 352 kts 286°
2026-05-04 09:23 38.85386 -78.21317 29979 ft 354 kts 276°
2026-05-04 09:25 38.84298 -78.43958 33916 ft 373 kts 261°
2026-05-04 09:25 38.83762 -78.47224 34417 ft 372 kts 261°
2026-05-04 09:26 38.83234 -78.50438 34894 ft 372 kts 261°
2026-05-04 09:26 38.82700 -78.53684 35349 ft 372 kts 261°
2026-05-04 09:26 38.82164 -78.56934 35755 ft 373 kts 261°
2026-05-04 09:26 38.81632 -78.60160 35969 ft 376 kts 261°
2026-05-04 09:27 38.80527 -78.66840 36028 ft 393 kts 260°
2026-05-04 09:27 38.79362 -78.73844 36036 ft 401 kts 260°
2026-05-04 09:28 38.78207 -78.80774 36026 ft 399 kts 260°
2026-05-04 09:28 38.77039 -78.87742 36031 ft 397 kts 260°
2026-05-04 09:29 38.75886 -78.94607 36036 ft 398 kts 260°
2026-05-04 09:29 38.74718 -79.01532 36034 ft 397 kts 261°
2026-05-04 09:30 38.73548 -79.08441 36031 ft 398 kts 260°
2026-05-04 09:30 38.72373 -79.15348 36035 ft 398 kts 261°
2026-05-04 09:31 38.71190 -79.22280 36035 ft 399 kts 261°
2026-05-04 09:31 38.70039 -79.29206 36022 ft 398 kts 261°
2026-05-04 09:32 38.68907 -79.36077 36034 ft 384 kts 262°
2026-05-04 09:34 38.65065 -79.59225 34398 ft 377 kts 262°
2026-05-04 09:34 38.64520 -79.62489 33965 ft 378 kts 263°
2026-05-04 09:34 38.63963 -79.65815 33538 ft 378 kts 262°
2026-05-04 09:34 38.63408 -79.69120 33123 ft 379 kts 262°
2026-05-04 09:35 38.62825 -79.72402 32704 ft 381 kts 261°
2026-05-04 09:35 38.62235 -79.75697 32283 ft 379 kts 261°
2026-05-04 09:35 38.61651 -79.78951 31859 ft 379 kts 261°
2026-05-04 09:35 38.61066 -79.82206 31439 ft 380 kts 261°
2026-05-04 09:37 38.56987 -80.04771 28521 ft 368 kts 261°
2026-05-04 09:37 38.56405 -80.07970 28113 ft 365 kts 262°
2026-05-04 09:38 38.55840 -80.11075 27720 ft 362 kts 262°
2026-05-04 09:38 38.55529 -80.14249 27318 ft 357 kts 272°
2026-05-04 09:38 38.55653 -80.17390 26927 ft 354 kts 276°
2026-05-04 09:38 38.55821 -80.20500 26531 ft 353 kts 276°
2026-05-04 09:39 38.55983 -80.23628 26142 ft 350 kts 276°
2026-05-04 09:39 38.56142 -80.26710 25757 ft 351 kts 276°
2026-05-04 09:39 38.56300 -80.29816 25359 ft 349 kts 276°
2026-05-04 09:39 38.56455 -80.32864 24982 ft 347 kts 276°
2026-05-04 09:40 38.56610 -80.35946 24602 ft 346 kts 276°
2026-05-04 09:40 38.56763 -80.39014 24212 ft 345 kts 276°
2026-05-04 09:40 38.56913 -80.42025 23837 ft 343 kts 276°
2026-05-04 09:40 38.57065 -80.45077 23462 ft 340 kts 276°
2026-05-04 09:41 38.57212 -80.48063 23089 ft 340 kts 276°
2026-05-04 09:42 38.56367 -80.68817 20476 ft 338 kts 260°
2026-05-04 09:43 38.55808 -80.71722 20111 ft 336 kts 260°
2026-05-04 09:43 38.55250 -80.74608 19745 ft 335 kts 260°
2026-05-04 09:43 38.54691 -80.77502 19371 ft 333 kts 260°
2026-05-04 09:43 38.54140 -80.80351 19003 ft 333 kts 260°
2026-05-04 09:44 38.53587 -80.83202 18638 ft 331 kts 260°
2026-05-04 09:44 38.53033 -80.86055 18285 ft 329 kts 260°
2026-05-04 09:44 38.52486 -80.88864 17921 ft 328 kts 259°
2026-05-04 09:46 38.48680 -81.08334 15391 ft 318 kts 259°
2026-05-04 09:46 38.48151 -81.11021 15047 ft 316 kts 259°
2026-05-04 09:46 38.47615 -81.13743 14703 ft 315 kts 259°
2026-05-04 09:47 38.47085 -81.16432 14357 ft 313 kts 259°
2026-05-04 09:47 38.46553 -81.19130 14007 ft 312 kts 259°
2026-05-04 09:49 38.42895 -81.37569 11638 ft 301 kts 258°
2026-05-04 09:49 38.42386 -81.40123 11319 ft 295 kts 258°
2026-05-04 09:49 38.41888 -81.42613 10975 ft 287 kts 258°
2026-05-04 09:51 38.39091 -81.56572 9169 ft 262 kts 258°
2026-05-04 09:51 38.38647 -81.58784 8884 ft 260 kts 257°
2026-05-04 09:51 38.38195 -81.61025 8597 ft 257 kts 258°
2026-05-04 09:51 38.37758 -81.63193 8318 ft 257 kts 257°
2026-05-04 09:52 38.37309 -81.65417 8033 ft 256 kts 257°
2026-05-04 09:52 38.36866 -81.67608 7754 ft 255 kts 257°
2026-05-04 09:52 38.36424 -81.69795 7462 ft 249 kts 257°
2026-05-04 09:52 38.36000 -81.71887 7179 ft 239 kts 257°
2026-05-04 09:53 38.35597 -81.73873 6979 ft 227 kts 257°
2026-05-04 09:53 38.35135 -81.75713 6744 ft 217 kts 242°
2026-05-04 09:53 38.33949 -81.76865 6476 ft 218 kts 202°
2026-05-04 09:53 38.32468 -81.77144 6194 ft 213 kts 192°
2026-05-04 09:54 38.31016 -81.77324 5926 ft 205 kts 192°
2026-05-04 09:54 38.29635 -81.77477 5787 ft 189 kts 192°
2026-05-04 09:54 38.28334 -81.77616 5547 ft 187 kts 192°
2026-05-04 09:54 38.27037 -81.77750 5315 ft 185 kts 192°
2026-05-04 09:55 38.25747 -81.77827 5084 ft 190 kts 180°
2026-05-04 09:55 38.24567 -81.76970 4847 ft 206 kts 135°
2026-05-04 09:55 38.24041 -81.75220 4355 ft 222 kts 94°
2026-05-04 09:55 38.24517 -81.73443 4045 ft 210 kts 49°
2026-05-04 09:56 38.25673 -81.72433 3825 ft 203 kts 20°
2026-05-04 09:56 38.26939 -81.71590 3589 ft 206 kts 25°
2026-05-04 09:56 38.28170 -81.70670 3309 ft 208 kts 26°
2026-05-04 09:56 38.29398 -81.69690 3046 ft 207 kts 28°
2026-05-04 09:57 38.30556 -81.68633 2787 ft 206 kts 43°
2026-05-04 09:57 38.31486 -81.67323 2520 ft 189 kts 44°
2026-05-04 09:57 38.32361 -81.66179 2276 ft 169 kts 44°
2026-05-04 09:57 38.33138 -81.65202 2093 ft 146 kts 41°
2026-05-04 09:58 38.33838 -81.64368 1889 ft 134 kts 39°
2026-05-04 09:58 38.34504 -81.63552 1726 ft 132 kts 44°
2026-05-04 09:58 38.35102 -81.62674 1587 ft 131 kts 46°
2026-05-04 10:00 38.38049 -81.58675 904 ft 20 kts 47°
2026-05-04 10:00 38.38096 -81.58575 900 ft 10 kts 99°
2026-05-04 10:02 38.37562 -81.59168 929 ft 8 kts 210°
2026-05-04 10:04 38.37422 -81.59253 941 ft 0 kts 227°